SCP
0 0 0 0 0 0 0 0 0 0 0 0 0 0 0 0 0 0 0 0 0 0 0 0 0 0 0 0 0 0 0 0 0 0 0 0 0 0 0 0 0 0 0 0
0 0 0 0 0 0 0 0 0 0 0 0 0 0 0 0 0 0 0 0 0 0 0 0 0 0 0 0 0 0 0 0 0 0 0 0 0 0 0 0 0 0 0 0
0 0 0 0 0 0 0 0 0 0 0 0 0 0 0 0 0 0 0 0 0 0 0 0 0 0 0 0 0 0 0 0 0 0 0 0 0 0 0 0 0 0 0 -0
0 0 0 0 0 0 0 0 0 0 0 0 0 0 0 0 0 0 0 0 0 0 0 0 0 0 0 0 0 0 0 0 0 0 0 0 0 0 0 0 0 0 0 0
0 0 0 0 0 0 0 0 0 0 0 0 0 0 0 0 0 0 0 0 0 0 0 0 0 0 0 0 0 0 0 0 0 0 0 0 0 0 0 0 0 0 0 -0
0 0 0 0 0 0 0 0 0 0 0 0 0 0 0 0 0 0 0 0 0 0 0 0 0 0 0 0 0 0 0 0 0 0 0 0 -0 0 0 0 0 0 0 0
0 0 0 0 0 0 0 0 0 0 0 0 0 0 0 0 0 0 0 0 0 0 0 0 0 0 0 0 0 0 0 0 0 0 0 0 0 0 0 0 0 0 0 0
0 0 0 0 0 0 0 0 0 0 0 0 0 0 0 0 0 0 0 0 0 0 0 0 0 0 0 0 0 0 0 0 0 0 0 0 -0 0 0 0 0 0 -0 -0
0 0 0 0 0 0 0 0 0 0 0 0 0 0 0 0 0 0 0 0 0 0 0 0 0 0 0 0 0 0 0 0 0 0 0 0 0 0 0 0 0 0 0 0
0 0 0 0 0 0 0 0 0 0 0 0 0 0 0 0 0 0 0 0 0 0 0 0 0 0 0 0 0 0 0 0 0 0 0 0 0 0 0 0 0 0 0 0
0 0 0 0 0 0 0 0 0 0 0 0 0 0 0 0 0 0 0 0 0 0 0 0 0 0 0 0 0 0 0 0 0 0 0 0 0 0 0 0 0 0 0 0
0 0 0 0 0 0 0 0 0 0 0 0 0 0 0 0 0 0 0 0 0 0 0 0 0 0 0 0 0 0 0 0 0 0 0 0 0 0 0 0 0 0 0 0
0 0 0 0 0 0 0 0 0 0 0 0 0 0 0 0 0 0 0 0 0 0 0 0 0 0 0 0 0 0 0 0 0 0 0 0 0 0 0 0 0 0 0 0
0 0 0 0 0 0 0 0 0 0 0 0 0 0 0 0 0 0 0 0 0 0 0 0 0 0 0 0 0 0 0 0 0 0 0 0 0 0 0 0 -0 0 0 0
0 0 0 0 0 0 0 0 0 0 0 0 0 0 0 0 0 0 0 0 0 0 0 0 0 0 0 0 0 0 0 0 0 0 0 0 0 0 0 0 0 0 0 0
0 0 0 0 0 0 0 0 0 0 0 0 0 0 0 0 0 0 0 0 0 0 0 0 0 0 0 0 0 0 0 0 0 0 0 0 0 0 0 0 0 0 0 0
0 0 0 0 0 0 0 0 0 0 0 0 0 0 0 0 0 0 0 0 0 0 0 0 0 0 0 0 0 0 0 0 0 0 0 0 0 0 0 0 0 0 0 0
0 0 0 0 0 0 0 0 0 0 0 0 0 0 0 0 0 0 0 0 0 0 0 0 0 0 0 0 0 0 0 0 0 0 0 0 0 0 0 0 0 0 0 0
0 0 0 0 0 0 0 0 0 0 0 0 0 0 0 0 0 0 0 0 0 0 0 0 0 0 0 0 0 0 0 0 0 0 0 0 0 0 -0 -0 -0 0 0 0
0 0 0 0 0 0 0 0 0 0 0 0 0 0 0 0 0 0 0 0 0 0 0 0 0 0 0 0 0 0 0 0 0 0 0 0 0 0 0 0 0 0 0 0
0 0 0 0 0 0 0 0 0 0 0 0 0 0 0 0 0 0 0 0 0 0 0 0 0 0 0 0 0 0 0 0 0 0 0 0 0 0 0 0 0 0 0 0
0 0 0 0 0 0 0 0 0 0 0 0 0 0 0 0 0 0 0 0 0 0 0 0 0 0 0 0 0 0 0 0 0 0 0 0 0 0 0 0 0 0 0 0
0 0 0 0 0 0 0 0 0 0 0 0 0 0 0 0 0 0 0 0 0 0 0 0 0 0 0 0 0 0 0 0 0 0 0 0 0 0 0 0 0 0 0 0
0 0 0 0 0 0 0 0 0 0 0 0 0 0 0 0 0 0 0 0 0 0 0 0 0 0 0 0 0 0 0 0 0 0 0 0 0 0 0 0 0 0 0 0
0 0 0 0 0 0 0 0 0 0 0 0 0 0 0 0 0 0 0 0 0 0 0 0 0 0 0 0 0 0 0 0 0 0 0 0 0 0 0 0 0 0 0 0
0 0 0 0 0 0 0 0 0 0 0 0 0 0 0 0 0 0 0 0 0 0 0 0 0 0 0 0 0 0 0 0 0 0 0 0 0 0 0 0 0 0 0 0
0 0 0 0 0 0 0 0 0 0 0 0 0 0 0 0 0 0 0 0 0 0 0 0 0 0 0 0 0 0 0 0 0 0 0 0 0 0 0 0 0 0 0 0
Wind_Speed_500mb
44 58 69 71 82 72 62 42 7 24 47 17 8 7 10 9 14 8 7 2 6 15 12 11 7 8 1 10 16 6 8 2 5 5 1 2 5 5 8 5 5 3 4 12
51 36 49 57 92 90 81 38 16 37 60 10 7 6 5 7 11 11 16 12 2 4 13 10 8 5 3 9 8 3 8 4 2 4 3 1 8 10 9 6 4 10 4 5
44 46 43 62 77 92 84 30 9 11 27 9 9 10 7 9 8 6 5 9 7 9 6 8 15 11 6 7 6 2 8 3 8 6 3 7 7 11 23 11 7 10 17 21
45 40 43 53 88 100 93 29 13 23 14 15 14 23 25 15 13 5 12 4 14 14 8 6 6 7 9 9 11 7 4 7 3 7 9 6 7 9 22 25 21 16 5 14
37 42 43 41 95 94 78 33 19 18 18 32 42 20 18 32 14 21 13 12 26 10 17 20 18 15 14 10 14 11 7 4 1 7 2 8 12 19 24 34 19 29 26 46
42 44 45 41 32 102 43 29 49 27 19 20 26 34 26 30 24 12 3 24 12 10 1 25 25 17 23 25 18 19 12 6 4 8 1 7 15 21 33 16 16 22 22 26
51 38 40 44 29 116 78 57 35 20 6 17 22 30 52 35 34 21 9 17 15 18 41 42 31 35 29 18 9 11 10 7 3 6 4 10 7 6 7 29 16 39 28 24
52 50 35 45 45 31 87 50 49 22 4 28 23 26 29 45 25 14 19 17 14 57 21 8 5 4 4 3 1 7 3 7 5 5 7 17 7 8 12 16 14 43 50 42
35 54 53 36 47 45 39 59 56 44 15 22 41 20 33 14 15 5 6 9 48 38 8 6 12 12 9 12 6 1 3 7 9 5 8 11 2 6 11 7 11 4 47 32
39 32 45 59 37 37 41 26 54 26 17 24 53 22 29 36 22 8 14 22 17 27 6 8 9 9 4 16 21 15 10 7 22 22 12 13 11 22 22 7 8 14 8 25
35 26 27 38 56 36 31 32 54 56 11 5 43 55 35 36 46 13 24 15 7 7 10 10 8 10 16 9 15 19 22 22 12 11 11 19 26 16 15 4 6 15 11 19
35 26 21 23 34 50 30 19 32 45 29 12 31 54 59 65 68 55 55 12 22 26 9 8 6 6 8 12 14 14 12 14 14 24 17 3 50 17 40 15 5 9 13 10
38 27 21 20 23 31 45 30 38 40 37 29 41 31 57 59 67 76 35 23 30 28 22 13 5 8 9 13 13 9 11 11 6 4 16 31 34 51 47 28 26 33 30 20
32 27 24 21 21 28 35 50 32 44 14 9 13 39 46 40 65 68 75 55 62 46 38 11 5 6 19 6 1 12 8 26 13 9 21 26 40 49 56 46 32 41 46 45
34 30 25 22 21 26 35 53 62 48 42 14 9 28 42 44 35 62 80 67 64 47 19 7 9 11 8 2 2 10 19 13 14 13 36 26 33 37 34 29 25 36 41 40
33 30 24 22 17 17 14 21 65 51 55 10 5 10 26 51 47 37 34 52 48 36 20 10 11 13 21 10 9 15 48 45 45 15 29 37 33 31 23 21 27 35 36 31
31 29 23 22 24 30 30 12 10 45 50 12 4 6 15 40 45 45 42 50 26 15 16 15 13 17 24 3 18 12 38 51 56 58 58 46 55 38 37 35 31 35 36 34
26 24 24 26 27 27 39 33 23 39 45 13 5 5 10 41 18 13 27 25 24 20 14 11 8 13 9 11 4 31 45 41 42 40 49 60 62 53 47 42 37 38 40 34
19 17 20 21 22 14 28 35 21 38 25 11 9 13 10 31 12 14 12 18 5 15 6 9 20 7 12 11 17 26 33 33 38 48 54 49 51 59 60 57 54 48 46 42
14 10 9 9 13 20 16 21 10 12 21 13 4 13 8 24 11 6 11 10 7 8 9 20 7 7 16 18 20 26 29 30 32 32 30 38 38 38 36 33 29 30 28 28
14 10 8 10 11 22 18 12 12 13 8 20 18 16 9 16 10 6 11 7 7 8 10 14 8 9 10 24 24 22 25 27 25 23 26 27 31 33 35 32 29 27 25 26
13 7 7 5 10 14 10 8 6 10 6 11 12 16 16 18 15 6 10 8 8 13 23 11 9 3 6 11 22 23 25 26 25 26 25 25 24 27 29 29 29 25 22 25
10 3 4 6 9 13 11 14 7 7 13 16 17 10 21 14 16 7 10 14 13 25 11 9 1 10 5 4 5 9 12 16 19 22 27 28 27 26 28 30 31 31 28 29
9 9 8 8 8 9 6 5 6 5 7 22 28 12 6 11 9 6 9 6 7 12 14 12 6 7 4 3 3 6 5 2 4 7 11 17 21 23 24 28 31 30 30 30
10 8 9 12 7 6 6 6 11 9 18 20 13 3 6 6 9 9 6 9 10 6 6 5 13 13 8 8 7 7 7 6 3 2 1 3 4 6 10 15 16 17 21 25
8 9 7 6 4 4 6 9 11 15 14 19 6 6 7 9 3 6 5 6 6 4 5 16 19 12 11 9 10 12 11 8 9 9 7 7 6 5 4 8 12 13 13 16
9 8 15 11 9 5 4 3 6 18 14 4 3 4 3 4 4 8 2 3 4 24 20 19 18 16 14 13 13 12 10 9 10 9 10 12 11 11 9 8 11 14 13 11
Wind_Direction_500mb
248 226 230 230 210 200 192 182 192 184 176 170 210 186 196 185 176 178 127 205 126 162 161 134 164 209 145 152 159 176 156 235 216 231 85 325 279 278 249 184 171 230 291 275
240 242 227 234 216 197 180 170 161 177 178 190 206 286 232 244 167 184 161 186 185 175 156 116 148 129 49 162 181 172 164 218 280 266 193 193 242 196 229 80 103 209 252 271
238 238 238 226 233 203 191 163 138 146 202 227 175 148 217 217 209 157 154 125 117 128 70 355 161 140 141 185 185 189 151 233 226 275 85 98 196 209 205 200 185 178 228 292
234 230 229 232 227 212 190 171 204 174 187 219 204 195 175 179 191 207 182 163 229 162 112 46 174 116 129 169 195 167 222 247 210 261 240 240 249 190 195 208 215 213 209 229
230 232 223 218 214 223 190 169 158 188 172 179 192 197 213 207 170 161 209 221 189 221 152 190 189 155 180 182 172 182 181 256 181 271 179 233 263 245 213 223 238 261 275 285
226 232 232 218 217 212 200 191 197 191 183 170 180 210 201 212 172 204 211 183 140 178 215 98 70 112 125 153 146 179 175 194 185 263 298 287 269 229 210 192 213 214 217 234
233 219 220 225 205 204 209 207 191 177 188 199 199 201 205 210 206 204 152 168 182 139 129 107 90 65 79 111 88 169 163 175 189 280 331 253 247 153 188 212 226 216 253 245
239 232 222 222 224 218 208 212 199 179 172 200 211 209 205 207 193 169 151 158 179 152 120 84 107 27 41 161 210 184 214 189 203 245 230 313 307 194 173 189 277 209 223 242
246 238 231 221 223 231 216 227 212 204 173 214 199 193 191 174 179 93 81 138 149 159 103 130 188 191 168 187 140 354 158 271 243 159 234 239 326 168 175 183 282 35 211 232
243 246 238 232 220 210 207 218 205 188 189 216 196 191 203 191 172 128 125 138 175 170 141 176 180 195 151 174 180 166 165 188 216 223 256 280 244 157 145 151 263 332 253 218
228 233 240 230 227 216 202 213 235 220 224 224 202 203 185 187 189 165 143 123 191 141 187 187 171 202 202 175 165 174 170 169 183 198 226 262 150 119 202 165 324 334 316 208
219 222 234 238 231 223 212 204 210 211 215 230 214 211 210 214 211 188 170 192 156 169 171 193 144 172 168 174 210 189 212 192 182 191 203 278 189 223 217 229 311 333 343 307
213 213 232 240 237 230 224 206 190 190 208 237 246 245 214 214 210 210 178 208 186 183 168 147 176 210 167 181 228 180 229 174 211 135 234 235 234 229 243 239 259 265 284 301
212 218 233 242 240 234 224 220 207 198 168 192 235 229 233 218 213 211 209 220 198 198 177 146 168 211 201 204 245 214 153 150 160 264 282 264 262 250 254 251 262 277 274 268
206 219 231 237 244 242 234 219 218 206 194 195 203 208 208 224 222 212 210 213 190 172 157 169 199 182 158 172 276 224 187 173 183 210 220 222 251 261 264 241 246 277 290 276
214 217 215 223 243 233 220 223 216 212 205 207 188 222 213 199 196 207 220 206 192 184 157 186 205 190 182 189 230 193 214 216 215 225 246 232 266 266 257 254 277 284 283 286
199 208 218 223 236 222 200 207 203 220 196 188 182 231 196 199 195 196 210 202 192 186 172 197 184 187 188 231 242 183 217 231 240 246 253 264 261 262 267 265 268 276 279 279
200 211 221 226 242 268 239 217 163 183 192 205 204 148 176 174 173 156 170 174 175 198 189 170 181 150 186 243 210 226 240 244 247 245 260 258 262 262 270 280 282 281 278 276
183 211 221 238 247 240 243 239 198 189 186 195 205 172 188 173 151 141 140 151 153 186 192 194 162 154 214 224 172 189 212 225 234 243 247 255 261 266 274 279 285 286 285 285
181 191 198 226 212 195 234 192 212 219 198 217 237 135 156 169 149 131 118 168 159 178 203 156 204 237 219 206 196 202 213 226 240 256 262 254 261 269 274 277 285 295 297 282
182 191 220 240 216 185 200 189 206 193 193 187 178 171 141 176 179 139 187 168 162 197 181 185 205 245 153 209 212 215 220 228 238 247 257 263 267 275 283 287 280 280 283 284
176 191 258 257 220 215 216 191 200 213 192 160 175 164 144 158 154 144 178 177 171 231 142 182 218 130 120 194 212 228 240 243 244 251 264 271 276 285 293 298 295 282 272 270
172 223 251 223 230 219 202 174 211 200 156 166 159 152 152 159 186 156 183 186 202 131 177 205 110 109 142 164 178 198 229 243 246 250 260 272 277 280 287 292 291 289 279 267
199 187 236 222 212 247 190 202 135 136 165 159 161 147 174 159 180 174 210 148 148 196 203 206 108 132 114 103 137 175 162 198 232 238 252 261 270 278 281 281 284 285 285 276
210 186 242 218 289 268 298 166 136 146 158 158 139 139 198 182 197 187 158 199 215 230 170 93 131 145 136 145 148 128 122 122 112 91 56 337 310 302 294 289 290 294 294 289
212 219 259 229 239 228 238 189 129 153 153 158 146 189 198 193 284 165 212 195 188 120 84 122 134 131 131 122 109 98 91 84 82 74 75 63 50 37 357 329 335 332 333 327
200 231 223 225 277 263 234 141 152 160 162 135 129 142 26 73 152 166 11 116 113 131 121 135 135 133 121 111 100 93 98 92 78 72 67 60 59 48 28 3 359 359 355 350
Wind_Speed_850mb
44 58 69 71 82 72 62 42 7 24 47 17 8 7 10 9 14 8 7 2 6 15 12 11 7 8 1 10 16 6 8 2 5 5 1 2 5 5 8 5 5 3 4 12
51 36 49 57 92 90 81 38 16 37 60 10 7 6 5 7 11 11 16 12 2 4 13 10 8 5 3 9 8 3 8 4 2 4 3 1 8 10 9 6 4 10 4 5
44 46 43 62 77 92 84 30 9 11 27 9 9 10 7 9 8 6 5 9 7 9 6 8 15 11 6 7 6 2 8 3 8 6 3 7 7 11 23 11 7 10 17 21
45 40 43 53 88 100 93 29 13 23 14 15 14 23 25 15 13 5 12 4 14 14 8 6 6 7 9 9 11 7 4 7 3 7 9 6 7 9 22 25 21 16 5 14
37 42 43 41 95 94 78 33 19 18 18 32 42 20 18 32 14 21 13 12 26 10 17 20 18 15 14 10 14 11 7 4 1 7 2 8 12 19 24 34 19 29 26 46
42 44 45 41 32 102 43 29 49 27 19 20 26 34 26 30 24 12 3 24 12 10 1 25 25 17 23 25 18 19 12 6 4 8 1 7 15 21 33 16 16 22 22 26
51 38 40 44 29 116 78 57 35 20 6 17 22 30 52 35 34 21 9 17 15 18 41 42 31 35 29 18 9 11 10 7 3 6 4 10 7 6 7 29 16 39 28 24
52 50 35 45 45 31 87 50 49 22 4 28 23 26 29 45 25 14 19 17 14 57 21 8 5 4 4 3 1 7 3 7 5 5 7 17 7 8 12 16 14 43 50 42
35 54 53 36 47 45 39 59 56 44 15 22 41 20 33 14 15 5 6 9 48 38 8 6 12 12 9 12 6 1 3 7 9 5 8 11 2 6 11 7 11 4 47 32
39 32 45 59 37 37 41 26 54 26 17 24 53 22 29 36 22 8 14 22 17 27 6 8 9 9 4 16 21 15 10 7 22 22 12 13 11 22 22 7 8 14 8 25
35 26 27 38 56 36 31 32 54 56 11 5 43 55 35 36 46 13 24 15 7 7 10 10 8 10 16 9 15 19 22 22 12 11 11 19 26 16 15 4 6 15 11 19
35 26 21 23 34 50 30 19 32 45 29 12 31 54 59 65 68 55 55 12 22 26 9 8 6 6 8 12 14 14 12 14 14 24 17 3 50 17 40 15 5 9 13 10
38 27 21 20 23 31 45 30 38 40 37 29 41 31 57 59 67 76 35 23 30 28 22 13 5 8 9 13 13 9 11 11 6 4 16 31 34 51 47 28 26 33 30 20
32 27 24 21 21 28 35 50 32 44 14 9 13 39 46 40 65 68 75 55 62 46 38 11 5 6 19 6 1 12 8 26 13 9 21 26 40 49 56 46 32 41 46 45
34 30 25 22 21 26 35 53 62 48 42 14 9 28 42 44 35 62 80 67 64 47 19 7 9 11 8 2 2 10 19 13 14 13 36 26 33 37 34 29 25 36 41 40
33 30 24 22 17 17 14 21 65 51 55 10 5 10 26 51 47 37 34 52 48 36 20 10 11 13 21 10 9 15 48 45 45 15 29 37 33 31 23 21 27 35 36 31
31 29 23 22 24 30 30 12 10 45 50 12 4 6 15 40 45 45 42 50 26 15 16 15 13 17 24 3 18 12 38 51 56 58 58 46 55 38 37 35 31 35 36 34
26 24 24 26 27 27 39 33 23 39 45 13 5 5 10 41 18 13 27 25 24 20 14 11 8 13 9 11 4 31 45 41 42 40 49 60 62 53 47 42 37 38 40 34
19 17 20 21 22 14 28 35 21 38 25 11 9 13 10 31 12 14 12 18 5 15 6 9 20 7 12 11 17 26 33 33 38 48 54 49 51 59 60 57 54 48 46 42
14 10 9 9 13 20 16 21 10 12 21 13 4 13 8 24 11 6 11 10 7 8 9 20 7 7 16 18 20 26 29 30 32 32 30 38 38 38 36 33 29 30 28 28
14 10 8 10 11 22 18 12 12 13 8 20 18 16 9 16 10 6 11 7 7 8 10 14 8 9 10 24 24 22 25 27 25 23 26 27 31 33 35 32 29 27 25 26
13 7 7 5 10 14 10 8 6 10 6 11 12 16 16 18 15 6 10 8 8 13 23 11 9 3 6 11 22 23 25 26 25 26 25 25 24 27 29 29 29 25 22 25
10 3 4 6 9 13 11 14 7 7 13 16 17 10 21 14 16 7 10 14 13 25 11 9 1 10 5 4 5 9 12 16 19 22 27 28 27 26 28 30 31 31 28 29
9 9 8 8 8 9 6 5 6 5 7 22 28 12 6 11 9 6 9 6 7 12 14 12 6 7 4 3 3 6 5 2 4 7 11 17 21 23 24 28 31 30 30 30
10 8 9 12 7 6 6 6 11 9 18 20 13 3 6 6 9 9 6 9 10 6 6 5 13 13 8 8 7 7 7 6 3 2 1 3 4 6 10 15 16 17 21 25
8 9 7 6 4 4 6 9 11 15 14 19 6 6 7 9 3 6 5 6 6 4 5 16 19 12 11 9 10 12 11 8 9 9 7 7 6 5 4 8 12 13 13 16
9 8 15 11 9 5 4 3 6 18 14 4 3 4 3 4 4 8 2 3 4 24 20 19 18 16 14 13 13 12 10 9 10 9 10 12 11 11 9 8 11 14 13 11
Wind_Direction_850mb
248 226 230 230 210 200 192 182 192 184 176 170 210 186 196 185 176 178 127 205 126 162 161 134 164 209 145 152 159 176 156 235 216 231 85 325 279 278 249 184 171 230 291 275
240 242 227 234 216 197 180 170 161 177 178 190 206 286 232 244 167 184 161 186 185 175 156 116 148 129 49 162 181 172 164 218 280 266 193 193 242 196 229 80 103 209 252 271
238 238 238 226 233 203 191 163 138 146 202 227 175 148 217 217 209 157 154 125 117 128 70 355 161 140 141 185 185 189 151 233 226 275 85 98 196 209 205 200 185 178 228 292
234 230 229 232 227 212 190 171 204 174 187 219 204 195 175 179 191 207 182 163 229 162 112 46 174 116 129 169 195 167 222 247 210 261 240 240 249 190 195 208 215 213 209 229
230 232 223 218 214 223 190 169 158 188 172 179 192 197 213 207 170 161 209 221 189 221 152 190 189 155 180 182 172 182 181 256 181 271 179 233 263 245 213 223 238 261 275 285
226 232 232 218 217 212 200 191 197 191 183 170 180 210 201 212 172 204 211 183 140 178 215 98 70 112 125 153 146 179 175 194 185 263 298 287 269 229 210 192 213 214 217 234
233 219 220 225 205 204 209 207 191 177 188 199 199 201 205 210 206 204 152 168 182 139 129 107 90 65 79 111 88 169 163 175 189 280 331 253 247 153 188 212 226 216 253 245
239 232 222 222 224 218 208 212 199 179 172 200 211 209 205 207 193 169 151 158 179 152 120 84 107 27 41 161 210 184 214 189 203 245 230 313 307 194 173 189 277 209 223 242
246 238 231 221 223 231 216 227 212 204 173 214 199 193 191 174 179 93 81 138 149 159 103 130 188 191 168 187 140 354 158 271 243 159 234 239 326 168 175 183 282 35 211 232
243 246 238 232 220 210 207 218 205 188 189 216 196 191 203 191 172 128 125 138 175 170 141 176 180 195 151 174 180 166 165 188 216 223 256 280 244 157 145 151 263 332 253 218
228 233 240 230 227 216 202 213 235 220 224 224 202 203 185 187 189 165 143 123 191 141 187 187 171 202 202 175 165 174 170 169 183 198 226 262 150 119 202 165 324 334 316 208
219 222 234 238 231 223 212 204 210 211 215 230 214 211 210 214 211 188 170 192 156 169 171 193 144 172 168 174 210 189 212 192 182 191 203 278 189 223 217 229 311 333 343 307
213 213 232 240 237 230 224 206 190 190 208 237 246 245 214 214 210 210 178 208 186 183 168 147 176 210 167 181 228 180 229 174 211 135 234 235 234 229 243 239 259 265 284 301
212 218 233 242 240 234 224 220 207 198 168 192 235 229 233 218 213 211 209 220 198 198 177 146 168 211 201 204 245 214 153 150 160 264 282 264 262 250 254 251 262 277 274 268
206 219 231 237 244 242 234 219 218 206 194 195 203 208 208 224 222 212 210 213 190 172 157 169 199 182 158 172 276 224 187 173 183 210 220 222 251 261 264 241 246 277 290 276
214 217 215 223 243 233 220 223 216 212 205 207 188 222 213 199 196 207 220 206 192 184 157 186 205 190 182 189 230 193 214 216 215 225 246 232 266 266 257 254 277 284 283 286
199 208 218 223 236 222 200 207 203 220 196 188 182 231 196 199 195 196 210 202 192 186 172 197 184 187 188 231 242 183 217 231 240 246 253 264 261 262 267 265 268 276 279 279
200 211 221 226 242 268 239 217 163 183 192 205 204 148 176 174 173 156 170 174 175 198 189 170 181 150 186 243 210 226 240 244 247 245 260 258 262 262 270 280 282 281 278 276
183 211 221 238 247 240 243 239 198 189 186 195 205 172 188 173 151 141 140 151 153 186 192 194 162 154 214 224 172 189 212 225 234 243 247 255 261 266 274 279 285 286 285 285
181 191 198 226 212 195 234 192 212 219 198 217 237 135 156 169 149 131 118 168 159 178 203 156 204 237 219 206 196 202 213 226 240 256 262 254 261 269 274 277 285 295 297 282
182 191 220 240 216 185 200 189 206 193 193 187 178 171 141 176 179 139 187 168 162 197 181 185 205 245 153 209 212 215 220 228 238 247 257 263 267 275 283 287 280 280 283 284
176 191 258 257 220 215 216 191 200 213 192 160 175 164 144 158 154 144 178 177 171 231 142 182 218 130 120 194 212 228 240 243 244 251 264 271 276 285 293 298 295 282 272 270
172 223 251 223 230 219 202 174 211 200 156 166 159 152 152 159 186 156 183 186 202 131 177 205 110 109 142 164 178 198 229 243 246 250 260 272 277 280 287 292 291 289 279 267
199 187 236 222 212 247 190 202 135 136 165 159 161 147 174 159 180 174 210 148 148 196 203 206 108 132 114 103 137 175 162 198 232 238 252 261 270 278 281 281 284 285 285 276
210 186 242 218 289 268 298 166 136 146 158 158 139 139 198 182 197 187 158 199 215 230 170 93 131 145 136 145 148 128 122 122 112 91 56 337 310 302 294 289 290 294 294 289
212 219 259 229 239 228 238 189 129 153 153 158 146 189 198 193 284 165 212 195 188 120 84 122 134 131 131 122 109 98 91 84 82 74 75 63 50 37 357 329 335 332 333 327
200 231 223 225 277 263 234 141 152 160 162 135 129 142 26 73 152 166 11 116 113 131 121 135 135 133 121 111 100 93 98 92 78 72 67 60 59 48 28 3 359 359 355 350